Time,TemperatureF,DewpointF,PressureIn,WindDirection,WindDirectionDegrees,WindSpeedMPH,WindSpeedGustMPH,Humidity,HourlyPrecipIn,Conditions,Clouds,dailyrainin,SoftwareType,DateUTC
2017-01-17 00:05:00,24.0,21.0,-100.00,North,1,4.0,5.0,89,-99.99,,,-99.99,,2017-01-17 08:05:00,
2017-01-17 00:14:00,25.0,22.0,-100.00,North,0,3.0,5.0,89,-99.99,,,-99.99,,2017-01-17 08:14:00,
2017-01-17 00:34:00,25.0,22.0,-100.00,North,7,1.0,3.0,89,-99.99,,,-99.99,,2017-01-17 08:34:00,
2017-01-17 01:04:00,24.0,22.0,-100.00,NE,41,1.0,3.0,91,-99.99,,,-99.99,,2017-01-17 09:04:00,
2017-01-17 01:15:00,24.0,22.0,-100.00,ESE,116,1.0,3.0,91,-99.99,,,-99.99,,2017-01-17 09:15:00,
2017-01-17 03:13:00,25.0,22.0,-100.00,NNE,13,1.0,3.0,90,-99.99,,,-99.99,,2017-01-17 11:13:00,
2017-01-17 04:06:00,24.0,22.0,-100.00,SW,230,2.0,7.0,90,-99.99,,,-99.99,,2017-01-17 12:06:00,
2017-01-17 04:16:00,24.0,22.0,-100.00,South,185,4.0,7.0,90,-99.99,,,-99.99,,2017-01-17 12:16:00,
2017-01-17 04:46:00,24.0,22.0,-100.00,SE,145,1.0,-999.0,91,-99.99,,,-99.99,,2017-01-17 12:46:00,
2017-01-17 05:06:00,24.0,22.0,-100.00,ESE,114,2.0,4.0,90,-99.99,,,-99.99,,2017-01-17 13:06:00,
2017-01-17 05:13:00,24.0,22.0,-100.00,ENE,66,1.0,5.0,92,-99.99,,,-99.99,,2017-01-17 13:13:00,
2017-01-17 06:05:00,23.0,21.0,-100.00,ENE,71,4.0,7.0,91,-99.99,,,-99.99,,2017-01-17 14:05:00,
2017-01-17 06:13:00,23.0,21.0,-100.00,NNE,24,4.0,7.0,90,-99.99,,,-99.99,,2017-01-17 14:13:00,
2017-01-17 06:44:00,23.0,21.0,-100.00,NNE,20,5.0,8.0,92,-99.99,,,-99.99,,2017-01-17 14:44:00,
2017-01-17 07:06:00,23.0,21.0,-100.00,NE,41,4.0,8.0,92,-99.99,,,-99.99,,2017-01-17 15:06:00,
2017-01-17 07:14:00,23.0,21.0,-100.00,NNE,20,5.0,8.0,92,-99.99,,,-99.99,,2017-01-17 15:14:00,
2017-01-17 07:24:00,23.0,21.0,-100.00,NNE,20,5.0,8.0,92,-99.99,,,-99.99,,2017-01-17 15:24:00,
2017-01-17 07:33:00,23.0,21.0,-100.00,NNE,20,5.0,8.0,92,-99.99,,,-99.99,,2017-01-17 15:33:00,
2017-01-17 09:16:00,23.0,21.0,-100.00,SW,230,1.0,5.0,92,-99.99,,,-99.99,,2017-01-17 17:16:00,
2017-01-17 10:07:00,24.0,22.0,-100.00,SSW,206,5.0,11.0,90,-99.99,,,-99.99,,2017-01-17 18:07:00,
2017-01-17 10:15:00,24.0,22.0,-100.00,SSW,206,5.0,11.0,90,-99.99,,,-99.99,,2017-01-17 18:15:00,
2017-01-17 11:17:00,25.0,21.0,-100.00,ENE,64,2.0,5.0,83,-99.99,,,-99.99,,2017-01-17 19:17:00,
2017-01-17 11:34:00,26.0,21.0,-100.00,NNW,343,2.0,6.0,82,-99.99,,,-99.99,,2017-01-17 19:34:00,
2017-01-17 12:06:00,26.0,22.0,-100.00,NE,44,2.0,5.0,83,-99.99,,,-99.99,,2017-01-17 20:06:00,
2017-01-17 12:15:00,26.0,22.0,-100.00,ENE,61,4.0,7.0,83,-99.99,,,-99.99,,2017-01-17 20:15:00,
2017-01-17 12:34:00,26.0,22.0,-100.00,ENE,62,4.0,7.0,85,-99.99,,,-99.99,,2017-01-17 20:34:00,
2017-01-17 13:05:00,26.0,22.0,-100.00,ENE,75,5.0,8.0,85,-99.99,,,-99.99,,2017-01-17 21:05:00,
2017-01-17 13:14:00,27.0,23.0,-100.00,ENE,69,3.0,7.0,85,-99.99,,,-99.99,,2017-01-17 21:14:00,
2017-01-17 13:24:00,27.0,23.0,-100.00,ENE,69,3.0,7.0,85,-99.99,,,-99.99,,2017-01-17 21:24:00,
2017-01-17 14:06:00,27.0,23.0,-100.00,ENE,65,5.0,8.0,86,-99.99,,,-99.99,,2017-01-17 22:06:00,
2017-01-17 14:14:00,27.0,23.0,-100.00,NE,51,5.0,9.0,85,-99.99,,,-99.99,,2017-01-17 22:14:00,
2017-01-17 16:06:00,26.0,23.0,-100.00,ENE,65,7.0,10.0,89,-99.99,,,-99.99,,2017-01-18 00:06:00,
2017-01-17 16:36:00,27.0,23.0,-100.00,NE,38,3.0,6.0,84,-99.99,,,-99.99,,2017-01-18 00:36:00,
2017-01-17 17:06:00,27.0,23.0,-100.00,North,-9999,0.0,2.0,83,-99.99,,,-99.99,,2017-01-18 01:06:00,
2017-01-17 17:14:00,27.0,23.0,-100.00,North,-9999,0.0,2.0,84,-99.99,,,-99.99,,2017-01-18 01:14:00,
2017-01-17 17:54:00,26.0,23.0,-100.00,SW,230,1.0,2.0,88,-99.99,,,-99.99,,2017-01-18 01:54:00,
2017-01-17 18:14:00,26.0,23.0,-100.00,North,-9999,0.0,2.0,89,-99.99,,,-99.99,,2017-01-18 02:14:00,